Regional Weather Roundup
Issued by NWS

Home | Current Version | Previous Version | Graphics & Text | Print | Product List | Glossary On
Versions: 1 2 3 4 5 6 7 8 9 10 11 12 13 14 15 16 17 18 19 20 21 22 23 24 25 26 27 28 29 30 31 32 33 34 35 36 37 38 39 40 41 42 43 44 45 46 47 48 49 50
000
ASUS43 KOAX 281302
RWRNE

WEATHER ROUNDUP FOR NEBRASKA
NATIONAL WEATHER SERVICE OMAHA NE
800 AM CDT THU JUL 28 2016

NOTES: SATELLITE DATA IS BEING USED TO AUGMENT CLOUD COVER ABOVE
       12000 FEET.
       "FAIR" INDICATES FEW OR NO CLOUDS BELOW 12,000 FEET WITH NO
       SIGNIFICANT WEATHER AND/OR OBSTRUCTIONS TO VISIBILITY.

  * THESE STATIONS DO NOT REPORT WEATHER SUCH AS RAIN...SNOW OR FOG.

NEZ001>004-019>022-054>056-281400-
NEBRASKA PANHANDLE

CITY           SKY/WX    TMP DP  RH WIND       PRES   REMARKS
SCOTTSBLUFF    CLOUDY    62  56  80 E14       30.17F
ALLIANCE       CLOUDY    60  58  92 SE5       30.18R
CHADRON        CLOUDY    66  54  65 VRB7      30.11R
SIDNEY         CLOUDY    61  57  87 NE18G28   30.21R
$$

NEZ057>060-069>072-079>082-281400-
SOUTHWEST NEBRASKA

CITY           SKY/WX    TMP DP  RH WIND       PRES   REMARKS
NORTH PLATTE   SUNNY     63  59  87 CALM      30.13R
IMPERIAL       CLOUDY    65  63  93 SE5       30.11S
LEXINGTON      MOSUNNY   63  60  88 NE6       30.11S
MCCOOK         MOSUNNY   66  63  90 NE8       30.11R
OGALLALA       PTSUNNY   65  60  84 N7        30.17R
$$

NEZ005>010-023>029-035>040-094-281400-
NORTH CENTRAL NEBRASKA

CITY           SKY/WX    TMP DP  RH WIND       PRES   REMARKS
VALENTINE      PTSUNNY   59  57  93 MISG      30.16R
AINSWORTH      MOSUNNY   60  59  98 NW5       30.16R
BROKEN BOW     SUNNY     61  60  97 CALM      30.12R
O`NEILL        SUNNY     66  64  93 CALM      30.13R
ORD            MOSUNNY   63  60  90 NW5       30.11R
THEDFORD       MOSUNNY   62  60  92 N3        30.17R
$$

NEZ041-046>049-061>064-073>077-083>087-281400-
SOUTH CENTRAL NEBRASKA

CITY           SKY/WX    TMP DP  RH WIND       PRES   REMARKS
GRAND ISLAND   MOSUNNY   65  61  87 N6        30.09S
AURORA         MOSUNNY   64  64  97 N5        30.08S
HASTINGS       CLOUDY    65  61  87 N6        30.10S
HEBRON         MOSUNNY   67  63  89 CALM      30.06S
HOLDREGE       CLOUDY    64  61  89 NE7       30.10S
KEARNEY *      MOSUNNY   64   7  10 N7        30.11S
YORK           MOSUNNY   66  64  94 N5        30.07S
$$

NEZ011>018-030>034-042>045-281400-
NORTHEAST NEBRASKA

CITY           SKY/WX    TMP DP  RH WIND       PRES   REMARKS
NORFOLK        MOSUNNY   67  62  84 N5        30.09R
ALBION         SUNNY     63  60  90 NW5       30.10R
BLAIR          SUNNY     71  67  87 N7        30.05S
FREMONT        SUNNY     69  65  88 N5        30.06S
TEKAMAH        SUNNY     70  64  81 N7        30.05R
WAYNE          MOSUNNY   66  62  87 CALM      30.10R
$$

NEZ050>053-065>068-078-088>093-281400-
SOUTHEAST NEBRASKA

CITY           SKY/WX    TMP DP  RH WIND       PRES   REMARKS
LINCOLN        SUNNY     70  65  84 N5        30.05S
OMAHA EPPLEY   MOSUNNY   72  67  84 N7        30.03R
BEATRICE       SUNNY     68  64  85 NW3       30.04S
FALLS CITY     MOSUNNY   71  69  93 NW5       30.00R
NEBRASKA CITY  CLOUDY    71  71 100 NE6       30.03R
PLATTSMOUTH    CLOUDY    72  68  88 N5        30.03S
$$

NEZ044-045-051>053-067-281400-
OMAHA AREA

CITY           SKY/WX    TMP DP  RH WIND       PRES   REMARKS
OMAHA EPPLEY   MOSUNNY   72  67  84 N7        30.03R
BLAIR          SUNNY     71  67  87 N7        30.05S
FREMONT        SUNNY     69  65  88 N5        30.06S
MILLARD        SUNNY     74  66  77 N5        30.03F
OFFUTT AFB     MOSUNNY   74  67  80 N6        30.02S
PLATTSMOUTH    CLOUDY    72  68  88 N5        30.03S
WAHOO          FAIR      69  66  89 N6        30.05R
$$




USA.gov is the U.S. government's official web portal to all federal, state and local government web resources and services.